User: anonymous   Login
Location: Unspecified
(0.0000°N, 0.0000°E)
Time: 21:07:54
(UTC+00:00)
Language:

USA 184 - Orbit

View from above orbital plane
View from above orbital plane
View from above satellite
View from above satellite

Ground track
Ground track

The orbit data is extracted from the following two-line orbital elements,

1 29249U 06027A   14361.85979318 0.00000598  00000-0  00000-0 0    01
2 29249  63.7401  37.2643 7113325 267.6096  16.8661  2.00633087    09
Epoch (UTC): 27 December 2014 20:38:06
Eccentricity: 0.7113325
inclination: 63.7401°
perigee height: 1287 km
apogee height: 39064 km
right ascension of ascending node: 37.2643°
argument of perigee: 267.6096°
revolutions per day: 2.00633087
mean anomaly at epoch: 16.8661°
orbit number at epoch: 0

The dashed part of the orbit path shows where the satellite is in the earth's shadow,  

DLR